This is the latest recevied weather packets stored in our database for station/object KB9HUO. If no packets are shown the sender has not sent any weather packets the latest 10 day(s).
| Time | Temp. | Humidity | Pressure | Rain* | Wind** | Luminosity | Snow |
|---|---|---|---|---|---|---|---|
| 1777928976 | 25° C | 45% | 1007.8 hPa | 0 mm | - | 86 W/m² | - |
| 1777928672 | 25° C | 44% | 1008.1 hPa | 0 mm | - | 94 W/m² | - |
| 1777928369 | 25° C | 45% | 1008.1 hPa | 0 mm | - | 115 W/m² | - |
| 1777928067 | 25° C | 45% | 1007.9 hPa | 0 mm | - | 150 W/m² | - |
| 1777927765 | 25° C | 45% | 1008.1 hPa | 0 mm | - | 136 W/m² | - |
| 1777927463 | 25° C | 45% | 1008.4 hPa | 0 mm | - | 127 W/m² | - |
| 1777927162 | 25° C | 44% | 1008.5 hPa | 0 mm | - | 132 W/m² | - |
| 1777926859 | 25° C | 45% | 1008.3 hPa | 0 mm | - | 139 W/m² | - |
| 1777926555 | 25° C | 45% | 1008.1 hPa | 0 mm | - | 168 W/m² | - |
| 1777926252 | 25° C | 44% | 1008.3 hPa | 0 mm | - | 188 W/m² | - |
| 1777925949 | 25° C | 45% | 1008.2 hPa | 0 mm | - | 176 W/m² | - |
| 1777925646 | 25° C | 44% | 1008.3 hPa | 0 mm | - | 190 W/m² | - |
| 1777925343 | 25° C | 44% | 1008.2 hPa | 0 mm | - | 180 W/m² | - |
| 1777925040 | 25° C | 45% | 1008.4 hPa | 0 mm | - | 182 W/m² | - |
| 1777924736 | 25° C | 44% | 1008.2 hPa | 0 mm | - | 135 W/m² | - |
| 1777924432 | 25° C | 45% | 1008.2 hPa | 0 mm | - | 115 W/m² | - |
| 1777924129 | 25° C | 44% | 1008.2 hPa | 0 mm | - | 159 W/m² | - |
| 1777923825 | 25.56° C | 43% | 1008.3 hPa | 0 mm | - | 107 W/m² | - |
| 1777923521 | 25° C | 43% | 1008.2 hPa | 0 mm | - | 89 W/m² | - |
| 1777923218 | 25° C | 42% | 1008.1 hPa | 0 mm | - | 69 W/m² | - |
| 1777922917 | 25.56° C | 43% | 1008 hPa | 0 mm | - | 67 W/m² | - |
| 1777922615 | 25.56° C | 45% | 1008.1 hPa | 0 mm | - | 101 W/m² | - |
| 1777922313 | 25.56° C | 42% | 1008.2 hPa | 0 mm | - | 160 W/m² | - |
| 1777922010 | 25.56° C | 42% | 1008.4 hPa | 0 mm | - | 155 W/m² | - |
| 1777921705 | 25.56° C | 44% | 1008.3 hPa | 0 mm | - | 715 W/m² | - |
* Rain latest hour (hover to see other rain measurements)
** Current wind speed in m/s (hover to see current wind gust speed)